Location: Hackbridge
(51.3833°N, 0.1500°W)
Time: 05:19:17
(UTC+00:00)

Cosmos 1328 - Pass Details

Date: 13 October 2019
Orbit: 531 x 553 km, 82.5° (Epoch: 14 November)

Event Time Altitude Azimuth Distance (km) Brightness Sun altitude
Rises 18:28:36 0° 352° (N) 2,729 7.5 -12.6°
Reaches altitude 10° 18:30:49 10° 356° (N) 1,827 6.6 -13.0°
Maximum altitude 18:34:47 58° 77° (ENE) 640 3.8 -13.6°
Drops below altitude 10° 18:38:41 10° 157° (SSE) 1,798 6.2 -14.2°
Enters shadow 18:40:42 - 161° (SSE) 2,619 7.0 -14.5°
